RÉSULTATS    Semi Marathon de Chartres - Édition du 18/03/2018


Vous pouvez changer la distance ici.

Vous pouvez changer la distance ici.

Classement PDF Général Classement PDF Alphabétique /results/<span class='glyphicon glyphicon-picture'></span> Classement Temps Réel - Temps Puce

Chargement des statistiques en cours




Pos. Temps Nom - Prénom Club Dossard Catégorie km/h
251 00:31:30 LARA Emmanuel ELTE 3026 SEM (28 / 33) 9.5
252 00:31:33 CASALINHO Nathalie 3269 V1F (37 / 52) 9.5
253 00:31:34 MONTFERME Karine 3253 V1F (38 / 52) 9.5
254 00:31:35 TEM Cedric 3347 SEM (29 / 33) 9.4
255 00:31:35 DESSAUX Melissa 3348 SEF (47 / 78) 9.4
256 00:31:35 LECARPENTIER Laurence 3086 V2F (11 / 21) 9.4
257 00:31:36 LECARPENTIER Lea 3087 ESF (8 / 8) 9.4
258 00:31:36 LECARPENTIER FLEURY Audrey 3085 SEF (48 / 78) 9.4
259 00:31:36 RAVANEL Axelle 3160 SEF (49 / 78) 9.4
260 00:31:38 SUREAU Nathalie 3214 SEF (50 / 78) 9.4
261 00:31:41 NOILLEAU Charlotte 3058 SEF (51 / 78) 9.4
262 00:31:59 BIVARD Jeff 3316 V1M (23 / 26) 9.3
263 00:31:59 PEREIRA Stephanie 3188 V1F (39 / 52) 9.3
264 00:32:01 MOUTEL Celine 3020 SEF (52 / 78) 9.3
265 00:32:17 DESCHAMPS Cindy FAN DE SPORT 28 3037 SEF (53 / 78) 9.2
266 00:32:27 BEAUJOIN Sarah 3306 SEF (54 / 78) 9.2
267 00:32:27 FONTAINE Celine 3349 SEF (55 / 78) 9.2
268 00:32:28 HAMON Laetitia 3307 SEF (56 / 78) 9.2
269 00:32:29 DELOHEN BESNARD Sophie 3345 SEF (57 / 78) 9.2
270 00:32:31 RAIMBAULT Solveig CHATEAU DES VAUX 3267 SEF (58 / 78) 9.2
271 00:32:32 DUVAL Michele 3022 V2F (12 / 21) 9.2
272 00:32:34 ROSSELL Diane 3314 CAF (12 / 12) 9.2
273 00:32:34 PEYRONNET Didier ATHLE CHARTRES LUCE ASPTT MAIN 3109 V4M (3 / 3) 9.2
274 00:32:39 GUET Angelique 3186 V1F (40 / 52) 9.1
275 00:32:39 GABILLARD Christine 3319 V1F (41 / 52) 9.1